Location: Boda
(47.1872°N, 9.5454°E)
Time: 09:41:54
(UTC+00:00)

Cosmos 1980 Rocket - Pass Details

Date: 14 May 2021
Orbit: 831 x 848 km, 71.0° (Epoch: 17 June)

Event Time Altitude Azimuth Distance (km) Brightness Sun altitude
Exits shadow 01:49:05 19° 185° (S) 1,891 3.5 -15.9°
Maximum altitude 01:53:02 59° 111° (ESE) 973 2.6 -15.5°
Drops below altitude 10° 01:58:36 10° 34° (NNE) 2,470 6.0 -14.9°
Sets 02:01:04 0° 30° (NNE) 3,406 7.1 -14.7°
